Sign-in with your pilot id or email, or register

ICAO: LFPG Name / Country: Paris - Charles-de-Gaulle / France
Latitude: 49.0128 Longitude: 2.55
Total Arrivals:
Deprecated: Non-static method AirportData::getarrflights() should not be called statically, assuming $this from incompatible context in /var/www/customers/vh-7192/web/home/phpvms/core/templates/airport_info.tpl on line 18
1
Total Departures:
Deprecated: Non-static method AirportData::getdeptflights() should not be called statically, assuming $this from incompatible context in /var/www/customers/vh-7192/web/home/phpvms/core/templates/airport_info.tpl on line 21
0
Latest Arrival: MTA11P (CHART (LHBP-LFPG) Tibor Berces Latest Departure: (-)
Metar: LFPG 050130Z 05002KT CAVOK 17/13 Q1011 NOSIG
More info

Charts for LFPG


NOTAM


Warning: file_get_contents(http://api.vateud.net/notams/LFPG.json): failed to open stream: HTTP request failed! HTTP/1.1 404 Not Found in /var/www/customers/vh-7192/web/home/phpvms/core/common/NOTAMSData.class.php on line 18

Warning: Invalid argument supplied for foreach() in /var/www/customers/vh-7192/web/home/phpvms/core/common/NOTAMSData.class.php on line 22

Paris - Charles-de-Gaulle